Year,Month,Day,Hour,Minute,Value (Times are PST for temperature in C)
2007,08,15,00,00,14.50
2007,08,15,00,01,14.50
2007,08,15,00,02,14.40
2007,08,15,00,03,14.40
2007,08,15,00,04,14.40
2007,08,15,00,05,14.40
2007,08,15,00,06,14.30
2007,08,15,00,07,14.30
2007,08,15,00,08,14.30
2007,08,15,00,09,14.30
2007,08,15,00,10,14.30
2007,08,15,00,11,14.30
2007,08,15,00,12,14.20
2007,08,15,00,13,14.20
2007,08,15,00,14,14.20
2007,08,15,00,15,14.20
2007,08,15,00,16,14.20
2007,08,15,00,17,14.20
2007,08,15,00,18,14.20
2007,08,15,00,19,14.20
2007,08,15,00,20,14.20
2007,08,15,00,21,14.20
2007,08,15,00,22,14.20
2007,08,15,00,23,14.10
2007,08,15,00,24,14.10
2007,08,15,00,25,14.10
2007,08,15,00,26,14.10
2007,08,15,00,27,14.10
2007,08,15,00,28,14.10
2007,08,15,00,29,14.10
2007,08,15,00,30,14.10
2007,08,15,00,31,14.10
2007,08,15,00,32,14.00
2007,08,15,00,33,14.00
2007,08,15,00,34,14.00
2007,08,15,00,35,14.00
2007,08,15,00,36,14.00
2007,08,15,00,37,14.00
2007,08,15,00,38,14.00
2007,08,15,00,39,14.00
2007,08,15,00,40,13.90
2007,08,15,00,41,13.90
2007,08,15,00,42,13.90
2007,08,15,00,43,13.90
2007,08,15,00,44,13.90
2007,08,15,00,45,13.90
2007,08,15,00,46,13.80
2007,08,15,00,47,13.80
2007,08,15,00,48,13.80
2007,08,15,00,49,13.80
2007,08,15,00,50,13.70
2007,08,15,00,51,13.70
2007,08,15,00,52,13.70
2007,08,15,00,53,13.70
2007,08,15,00,54,13.70
2007,08,15,00,55,13.70
2007,08,15,00,56,13.70
2007,08,15,00,57,13.70
2007,08,15,00,58,13.70
2007,08,15,00,59,13.70
2007,08,15,01,00,13.70
2007,08,15,01,01,13.70
2007,08,15,01,02,13.70
2007,08,15,01,03,13.70
2007,08,15,01,04,13.70
2007,08,15,01,05,13.70
2007,08,15,01,06,13.70
2007,08,15,01,07,13.70
2007,08,15,01,08,13.60
2007,08,15,01,09,13.60
2007,08,15,01,10,13.60
2007,08,15,01,11,13.60
2007,08,15,01,12,13.60
2007,08,15,01,13,13.50
2007,08,15,01,14,13.50
2007,08,15,01,15,13.50
2007,08,15,01,16,13.50
2007,08,15,01,17,13.50
2007,08,15,01,18,13.50
2007,08,15,01,19,13.50
2007,08,15,01,20,13.50
2007,08,15,01,21,13.50
2007,08,15,01,22,13.50
2007,08,15,01,23,13.50
2007,08,15,01,24,13.50
2007,08,15,01,25,13.50
2007,08,15,01,26,13.50
2007,08,15,01,27,13.50
2007,08,15,01,28,13.50
2007,08,15,01,29,13.50
2007,08,15,01,30,13.50
2007,08,15,01,31,13.50
2007,08,15,01,32,13.50
2007,08,15,01,33,13.50
2007,08,15,01,34,13.50
2007,08,15,01,35,13.50
2007,08,15,01,36,13.50
2007,08,15,01,37,13.50
2007,08,15,01,38,13.50
2007,08,15,01,39,13.50
2007,08,15,01,40,13.50
2007,08,15,01,41,13.40
2007,08,15,01,42,13.40
2007,08,15,01,43,13.40
2007,08,15,01,44,13.40
2007,08,15,01,45,13.40
2007,08,15,01,46,13.40
2007,08,15,01,47,13.40
2007,08,15,01,48,13.30
2007,08,15,01,49,13.30
2007,08,15,01,50,13.30
2007,08,15,01,51,13.30
2007,08,15,01,52,13.30
2007,08,15,01,53,13.30
2007,08,15,01,54,13.30
2007,08,15,01,55,13.30
2007,08,15,01,56,13.30
2007,08,15,01,57,13.30
2007,08,15,01,58,13.30
2007,08,15,01,59,13.30
2007,08,15,02,00,13.30
2007,08,15,02,01,13.30
2007,08,15,02,02,13.30
2007,08,15,02,03,13.30
2007,08,15,02,04,13.30
2007,08,15,02,05,13.30
2007,08,15,02,06,13.30
2007,08,15,02,07,13.30
2007,08,15,02,08,13.30
2007,08,15,02,09,13.30
2007,08,15,02,10,13.30
2007,08,15,02,11,13.20
2007,08,15,02,12,13.20
2007,08,15,02,13,13.20
2007,08,15,02,14,13.20
2007,08,15,02,15,13.20
2007,08,15,02,16,13.20
2007,08,15,02,17,13.20
2007,08,15,02,18,13.10
2007,08,15,02,19,13.10
2007,08,15,02,20,13.10
2007,08,15,02,21,13.10
2007,08,15,02,22,13.10
2007,08,15,02,23,13.10
2007,08,15,02,24,13.10
2007,08,15,02,25,13.10
2007,08,15,02,26,13.10
2007,08,15,02,27,13.10
2007,08,15,02,28,13.10
2007,08,15,02,29,13.10
2007,08,15,02,30,13.00
2007,08,15,02,31,13.00
2007,08,15,02,32,13.00
2007,08,15,02,33,13.00
2007,08,15,02,34,13.00
2007,08,15,02,35,13.00
2007,08,15,02,36,13.00
2007,08,15,02,37,13.00
2007,08,15,02,38,13.00
2007,08,15,02,39,12.90
2007,08,15,02,40,12.90
2007,08,15,02,41,12.90
2007,08,15,02,42,12.90
2007,08,15,02,43,12.90
2007,08,15,02,44,12.90
2007,08,15,02,45,12.90
2007,08,15,02,46,12.90
2007,08,15,02,47,12.80
2007,08,15,02,48,12.80
2007,08,15,02,49,12.80
2007,08,15,02,50,12.80
2007,08,15,02,51,12.80
2007,08,15,02,52,12.80
2007,08,15,02,53,12.80
2007,08,15,02,54,12.80
2007,08,15,02,55,12.80
2007,08,15,02,56,12.80
2007,08,15,02,57,12.80
2007,08,15,02,58,12.80
2007,08,15,02,59,12.80
2007,08,15,03,00,12.70
2007,08,15,03,01,12.70
2007,08,15,03,02,12.70
2007,08,15,03,03,12.70
2007,08,15,03,04,12.70
2007,08,15,03,05,12.70
2007,08,15,03,06,12.70
2007,08,15,03,07,12.70
2007,08,15,03,08,12.70
2007,08,15,03,09,12.60
2007,08,15,03,10,12.60
2007,08,15,03,11,12.60
2007,08,15,03,12,12.60
2007,08,15,03,13,12.60
2007,08,15,03,14,12.60
2007,08,15,03,15,12.60
2007,08,15,03,16,12.60
2007,08,15,03,17,12.60
2007,08,15,03,18,12.60
2007,08,15,03,19,12.60
2007,08,15,03,20,12.60
2007,08,15,03,21,12.60
2007,08,15,03,22,12.60
2007,08,15,03,23,12.60
2007,08,15,03,24,12.60
2007,08,15,03,25,12.60
2007,08,15,03,26,12.60
2007,08,15,03,27,12.60
2007,08,15,03,28,12.60
2007,08,15,03,29,12.60
2007,08,15,03,30,12.60
2007,08,15,03,31,12.50
2007,08,15,03,32,12.50
2007,08,15,03,33,12.50
2007,08,15,03,34,12.50
2007,08,15,03,35,12.50
2007,08,15,03,36,12.50
2007,08,15,03,37,12.50
2007,08,15,03,38,12.50
2007,08,15,03,39,12.50
2007,08,15,03,40,12.50
2007,08,15,03,41,12.50
2007,08,15,03,42,12.50
2007,08,15,03,43,12.50
2007,08,15,03,44,12.50
2007,08,15,03,45,12.40
2007,08,15,03,46,12.40
2007,08,15,03,47,12.40
2007,08,15,03,48,12.40
2007,08,15,03,49,12.40
2007,08,15,03,50,12.40
2007,08,15,03,51,12.40
2007,08,15,03,52,12.30
2007,08,15,03,53,12.30
2007,08,15,03,54,12.30
2007,08,15,03,55,12.30
2007,08,15,03,56,12.30
2007,08,15,03,57,12.30
2007,08,15,03,58,12.30
2007,08,15,03,59,12.30
2007,08,15,04,00,12.30
2007,08,15,04,01,12.30
2007,08,15,04,02,12.30
2007,08,15,04,03,12.30
2007,08,15,04,04,12.30
2007,08,15,04,05,12.30
2007,08,15,04,06,12.20
2007,08,15,04,07,12.20
2007,08,15,04,08,12.20
2007,08,15,04,09,12.20
2007,08,15,04,10,12.20
2007,08,15,04,11,12.20
2007,08,15,04,12,12.20
2007,08,15,04,13,12.20
2007,08,15,04,14,12.20
2007,08,15,04,15,12.20
2007,08,15,04,16,12.10
2007,08,15,04,17,12.10
2007,08,15,04,18,12.10
2007,08,15,04,19,12.10
2007,08,15,04,20,12.10
2007,08,15,04,21,12.10
2007,08,15,04,22,12.10
2007,08,15,04,23,12.10
2007,08,15,04,24,12.10
2007,08,15,04,25,12.10
2007,08,15,04,26,12.10
2007,08,15,04,27,12.10
2007,08,15,04,28,12.00
2007,08,15,04,29,12.00
2007,08,15,04,30,12.00
2007,08,15,04,31,12.00
2007,08,15,04,32,12.00
2007,08,15,04,33,12.00
2007,08,15,04,34,12.00
2007,08,15,04,35,12.00
2007,08,15,04,36,12.00
2007,08,15,04,37,12.00
2007,08,15,04,38,12.00
2007,08,15,04,39,12.00
2007,08,15,04,40,12.00
2007,08,15,04,41,12.00
2007,08,15,04,42,12.00
2007,08,15,04,43,12.00
2007,08,15,04,44,12.00
2007,08,15,04,45,12.00
2007,08,15,04,46,12.00
2007,08,15,04,47,12.00
2007,08,15,04,48,11.90
2007,08,15,04,49,11.90
2007,08,15,04,50,11.90
2007,08,15,04,51,11.90
2007,08,15,04,52,11.90
2007,08,15,04,53,11.90
2007,08,15,04,54,11.90
2007,08,15,04,55,11.90
2007,08,15,04,56,11.90
2007,08,15,04,57,11.90
2007,08,15,04,58,11.90
2007,08,15,04,59,11.80
2007,08,15,05,00,11.80
2007,08,15,05,01,11.80
2007,08,15,05,02,11.80
2007,08,15,05,03,11.80
2007,08,15,05,04,11.80
2007,08,15,05,05,11.80
2007,08,15,05,06,11.80
2007,08,15,05,07,11.80
2007,08,15,05,08,11.80
2007,08,15,05,09,11.80
2007,08,15,05,10,11.80
2007,08,15,05,11,11.80
2007,08,15,05,12,11.80
2007,08,15,05,13,11.80
2007,08,15,05,14,11.80
2007,08,15,05,15,11.80
2007,08,15,05,16,11.80
2007,08,15,05,17,11.80
2007,08,15,05,18,11.80
2007,08,15,05,19,11.80
2007,08,15,05,20,11.80
2007,08,15,05,21,11.80
2007,08,15,05,22,11.80
2007,08,15,05,23,11.80
2007,08,15,05,24,11.80
2007,08,15,05,25,11.80
2007,08,15,05,26,11.80
2007,08,15,05,27,11.80
2007,08,15,05,28,11.70
2007,08,15,05,29,11.70
2007,08,15,05,30,11.70
2007,08,15,05,31,11.70
2007,08,15,05,32,11.70
2007,08,15,05,33,11.70
2007,08,15,05,34,11.70
2007,08,15,05,35,11.70
2007,08,15,05,36,11.70
2007,08,15,05,37,11.70
2007,08,15,05,38,11.70
2007,08,15,05,39,11.70
2007,08,15,05,40,11.70
2007,08,15,05,41,11.70
2007,08,15,05,42,11.70
2007,08,15,05,43,11.70
2007,08,15,05,44,11.70
2007,08,15,05,45,11.70
2007,08,15,05,46,11.60
2007,08,15,05,47,11.60
2007,08,15,05,48,11.60
2007,08,15,05,49,11.60
2007,08,15,05,50,11.60
2007,08,15,05,51,11.60
2007,08,15,05,52,11.60
2007,08,15,05,53,11.60
2007,08,15,05,54,11.60
2007,08,15,05,55,11.60
2007,08,15,05,56,11.60
2007,08,15,05,57,11.60
2007,08,15,05,58,11.60
2007,08,15,05,59,11.60
2007,08,15,06,00,11.60
2007,08,15,06,01,11.60
2007,08,15,06,02,11.60
2007,08,15,06,03,11.60
2007,08,15,06,04,11.60
2007,08,15,06,05,11.60
2007,08,15,06,06,11.60
2007,08,15,06,07,11.60
2007,08,15,06,08,11.60
2007,08,15,06,09,11.60
2007,08,15,06,10,11.60
2007,08,15,06,11,11.60
2007,08,15,06,12,11.60
2007,08,15,06,13,11.60
2007,08,15,06,14,11.60
2007,08,15,06,15,11.60
2007,08,15,06,16,11.60
2007,08,15,06,17,11.60
2007,08,15,06,18,11.60
2007,08,15,06,19,11.40
2007,08,15,06,20,11.40
2007,08,15,06,21,11.40
2007,08,15,06,22,11.40
2007,08,15,06,23,11.40
2007,08,15,06,24,11.40
2007,08,15,06,25,11.40
2007,08,15,06,26,11.40
2007,08,15,06,27,11.40
2007,08,15,06,28,11.50
2007,08,15,06,29,11.50
2007,08,15,06,30,11.50
2007,08,15,06,31,11.40
2007,08,15,06,32,11.40
2007,08,15,06,33,11.40
2007,08,15,06,34,11.40
2007,08,15,06,35,11.40
2007,08,15,06,36,11.40
2007,08,15,06,37,11.40
2007,08,15,06,38,11.40
2007,08,15,06,39,11.40
2007,08,15,06,40,11.40
2007,08,15,06,41,11.40
2007,08,15,06,42,11.40
2007,08,15,06,43,11.60
2007,08,15,06,44,11.60
2007,08,15,06,45,11.60
2007,08,15,06,46,11.60
2007,08,15,06,47,11.60
2007,08,15,06,48,11.60
2007,08,15,06,49,11.60
2007,08,15,06,50,11.60
2007,08,15,06,51,11.60
2007,08,15,06,52,11.50
2007,08,15,06,53,11.50
2007,08,15,06,54,11.50
2007,08,15,06,55,11.50
2007,08,15,06,56,11.50
2007,08,15,06,57,11.60
2007,08,15,06,58,11.60
2007,08,15,06,59,11.60
2007,08,15,07,00,11.60
2007,08,15,07,01,11.60
2007,08,15,07,02,11.60
2007,08,15,07,03,11.60
2007,08,15,07,04,11.60
2007,08,15,07,05,11.60
2007,08,15,07,06,11.60
2007,08,15,07,07,11.60
2007,08,15,07,08,11.60
2007,08,15,07,09,11.60
2007,08,15,07,10,11.60
2007,08,15,07,11,11.60
2007,08,15,07,12,11.60
2007,08,15,07,13,11.60
2007,08,15,07,14,11.60
2007,08,15,07,15,11.60
2007,08,15,07,16,11.60
2007,08,15,07,17,11.70
2007,08,15,07,18,11.70
2007,08,15,07,19,11.70
2007,08,15,07,20,11.70
2007,08,15,07,21,11.70
2007,08,15,07,22,11.80
2007,08,15,07,23,11.80
2007,08,15,07,24,11.80
2007,08,15,07,25,11.80
2007,08,15,07,26,11.80
2007,08,15,07,27,11.80
2007,08,15,07,28,11.80
2007,08,15,07,29,11.80
2007,08,15,07,30,11.80
2007,08,15,07,31,11.90
2007,08,15,07,32,11.90
2007,08,15,07,33,11.90
2007,08,15,07,34,11.90
2007,08,15,07,35,11.90
2007,08,15,07,36,11.90
2007,08,15,07,37,12.00
2007,08,15,07,38,12.00
2007,08,15,07,39,12.00
2007,08,15,07,40,12.10
2007,08,15,07,41,12.10
2007,08,15,07,42,12.10
2007,08,15,07,43,12.20
2007,08,15,07,44,12.20
2007,08,15,07,45,12.20
2007,08,15,07,46,12.30
2007,08,15,07,47,12.30
2007,08,15,07,48,12.30
2007,08,15,07,49,12.30
2007,08,15,07,50,12.30
2007,08,15,07,51,12.40
2007,08,15,07,52,12.40
2007,08,15,07,53,12.50
2007,08,15,07,54,12.50
2007,08,15,07,55,12.50
2007,08,15,07,56,12.60
2007,08,15,07,57,12.60
2007,08,15,07,58,12.60
2007,08,15,07,59,12.70
2007,08,15,08,00,12.70
2007,08,15,08,01,12.80
2007,08,15,08,02,12.80
2007,08,15,08,03,12.80
2007,08,15,08,04,12.90
2007,08,15,08,05,13.00
2007,08,15,08,06,13.00
2007,08,15,08,07,13.10
2007,08,15,08,08,13.10
2007,08,15,08,09,13.20
2007,08,15,08,10,13.30
2007,08,15,08,11,13.30
2007,08,15,08,12,13.40
2007,08,15,08,13,13.50
2007,08,15,08,14,13.50
2007,08,15,08,15,13.60
2007,08,15,08,16,13.70
2007,08,15,08,17,13.70
2007,08,15,08,18,13.80
2007,08,15,08,19,13.80
2007,08,15,08,20,13.90
2007,08,15,08,21,14.00
2007,08,15,08,22,14.00
2007,08,15,08,23,14.10
2007,08,15,08,24,14.20
2007,08,15,08,25,14.20
2007,08,15,08,26,14.30
2007,08,15,08,27,14.40
2007,08,15,08,28,14.50
2007,08,15,08,29,14.60
2007,08,15,08,30,14.60
2007,08,15,08,31,14.70
2007,08,15,08,32,14.80
2007,08,15,08,33,14.90
2007,08,15,08,34,15.00
2007,08,15,08,35,15.00
2007,08,15,08,36,15.10
2007,08,15,08,37,15.20
2007,08,15,08,38,15.30
2007,08,15,08,39,15.30
2007,08,15,08,40,15.50
2007,08,15,08,41,15.60
2007,08,15,08,42,15.70
2007,08,15,08,43,15.80
2007,08,15,08,44,15.90
2007,08,15,08,45,16.10
2007,08,15,08,46,16.20
2007,08,15,08,47,16.30
2007,08,15,08,48,16.40
2007,08,15,08,49,16.50
2007,08,15,08,50,16.60
2007,08,15,08,51,16.70
2007,08,15,08,52,16.90
2007,08,15,08,53,17.00
2007,08,15,08,54,17.10
2007,08,15,08,55,17.30
2007,08,15,08,56,17.40
2007,08,15,08,57,17.50
2007,08,15,08,58,17.70
2007,08,15,08,59,17.80
2007,08,15,09,00,18.00
2007,08,15,09,01,18.30
2007,08,15,09,02,18.60
2007,08,15,09,03,18.80
2007,08,15,09,04,19.00
2007,08,15,09,05,19.10
2007,08,15,09,06,19.30
2007,08,15,09,07,19.40
2007,08,15,09,08,19.50
2007,08,15,09,09,19.60
2007,08,15,09,10,19.70
2007,08,15,09,11,19.80
2007,08,15,09,12,20.00
2007,08,15,09,13,20.20
2007,08,15,09,14,20.30
2007,08,15,09,15,20.40
2007,08,15,09,16,20.50
2007,08,15,09,17,20.50
2007,08,15,09,18,20.60
2007,08,15,09,19,20.60
2007,08,15,09,20,20.70
2007,08,15,09,21,20.80
2007,08,15,09,22,20.80
2007,08,15,09,23,20.90
2007,08,15,09,24,20.90
2007,08,15,09,25,21.00
2007,08,15,09,26,21.10
2007,08,15,09,27,21.20
2007,08,15,09,28,21.20
2007,08,15,09,29,21.30
2007,08,15,09,30,21.30
2007,08,15,09,31,21.30
2007,08,15,09,32,21.40
2007,08,15,09,33,21.50
2007,08,15,09,34,21.60
2007,08,15,09,35,21.60
2007,08,15,09,36,21.60
2007,08,15,09,37,21.60
2007,08,15,09,38,21.60
2007,08,15,09,39,21.70
2007,08,15,09,40,21.70
2007,08,15,09,41,21.70
2007,08,15,09,42,21.80
2007,08,15,09,43,21.80
2007,08,15,09,44,21.90
2007,08,15,09,45,21.90
2007,08,15,09,46,22.00
2007,08,15,09,47,22.00
2007,08,15,09,48,22.10
2007,08,15,09,49,22.10
2007,08,15,09,50,22.20
2007,08,15,09,51,22.20
2007,08,15,09,52,22.20
2007,08,15,09,53,22.30
2007,08,15,09,54,22.30
2007,08,15,09,55,22.30
2007,08,15,09,56,22.30
2007,08,15,09,57,22.30
2007,08,15,09,58,22.30
2007,08,15,09,59,22.40
2007,08,15,10,00,22.40
2007,08,15,10,01,22.40
2007,08,15,10,02,22.40
2007,08,15,10,03,22.40
2007,08,15,10,04,22.40
2007,08,15,10,05,22.40
2007,08,15,10,06,22.50
2007,08,15,10,07,22.50
2007,08,15,10,08,22.50
2007,08,15,10,09,22.50
2007,08,15,10,10,22.50
2007,08,15,10,11,22.50
2007,08,15,10,12,22.50
2007,08,15,10,13,22.50
2007,08,15,10,14,22.50
2007,08,15,10,15,22.50
2007,08,15,10,16,22.50
2007,08,15,10,17,22.60
2007,08,15,10,18,22.60
2007,08,15,10,19,22.60
2007,08,15,10,20,22.70
2007,08,15,10,21,22.70
2007,08,15,10,22,22.80
2007,08,15,10,23,22.80
2007,08,15,10,24,22.90
2007,08,15,10,25,22.90
2007,08,15,10,26,22.90
2007,08,15,10,27,22.90
2007,08,15,10,28,22.90
2007,08,15,10,29,23.00
2007,08,15,10,30,23.10
2007,08,15,10,31,23.10
2007,08,15,10,32,23.20
2007,08,15,10,33,23.20
2007,08,15,10,34,23.30
2007,08,15,10,35,23.30
2007,08,15,10,36,23.30
2007,08,15,10,37,23.30
2007,08,15,10,38,23.30
2007,08,15,10,39,23.30
2007,08,15,10,40,23.30
2007,08,15,10,41,23.30
2007,08,15,10,42,23.30
2007,08,15,10,43,23.40
2007,08,15,10,44,23.40
2007,08,15,10,45,23.40
2007,08,15,10,46,23.50
2007,08,15,10,47,23.60
2007,08,15,10,48,23.60
2007,08,15,10,49,23.60
2007,08,15,10,50,23.60
2007,08,15,10,51,23.40
2007,08,15,10,52,23.40
2007,08,15,10,53,23.40
2007,08,15,10,54,23.40
2007,08,15,10,55,23.50
2007,08,15,10,56,23.60
2007,08,15,10,57,23.60
2007,08,15,10,58,23.60
2007,08,15,10,59,23.60
2007,08,15,11,00,23.70
2007,08,15,11,01,23.70
2007,08,15,11,02,23.70
2007,08,15,11,03,23.70
2007,08,15,11,04,23.70
2007,08,15,11,05,23.80
2007,08,15,11,06,23.80
2007,08,15,11,07,23.90
2007,08,15,11,08,23.90
2007,08,15,11,09,23.90
2007,08,15,11,10,23.90
2007,08,15,11,11,23.90
2007,08,15,11,12,23.90
2007,08,15,11,13,23.90
2007,08,15,11,14,23.90
2007,08,15,11,15,24.00
2007,08,15,11,16,24.00
2007,08,15,11,17,24.10
2007,08,15,11,18,24.10
2007,08,15,11,19,24.10
2007,08,15,11,20,24.10
2007,08,15,11,21,24.10
2007,08,15,11,22,24.10
2007,08,15,11,23,24.10
2007,08,15,11,24,24.10
2007,08,15,11,25,24.20
2007,08,15,11,26,24.20
2007,08,15,11,27,24.20
2007,08,15,11,28,24.30
2007,08,15,11,29,24.30
2007,08,15,11,30,24.30
2007,08,15,11,31,24.40
2007,08,15,11,32,24.40
2007,08,15,11,33,24.40
2007,08,15,11,34,24.40
2007,08,15,11,35,24.40
2007,08,15,11,36,24.40
2007,08,15,11,37,24.40
2007,08,15,11,38,24.40
2007,08,15,11,39,24.40
2007,08,15,11,40,24.40
2007,08,15,11,41,24.40
2007,08,15,11,42,24.40
2007,08,15,11,43,24.50
2007,08,15,11,44,24.50
2007,08,15,11,45,24.50
2007,08,15,11,46,24.50
2007,08,15,11,47,24.60
2007,08,15,11,48,24.60
2007,08,15,11,49,24.60
2007,08,15,11,50,24.60
2007,08,15,11,51,24.60
2007,08,15,11,52,24.70
2007,08,15,11,53,24.70
2007,08,15,11,54,24.80
2007,08,15,11,55,24.80
2007,08,15,11,56,24.80
2007,08,15,11,57,24.90
2007,08,15,11,58,24.90
2007,08,15,11,59,24.90
2007,08,15,12,00,24.90
2007,08,15,12,01,24.90
2007,08,15,12,02,24.90
2007,08,15,12,03,24.90
2007,08,15,12,04,24.90
2007,08,15,12,05,25.00
2007,08,15,12,06,24.90
2007,08,15,12,07,24.90
2007,08,15,12,08,24.90
2007,08,15,12,09,24.90
2007,08,15,12,10,24.90
2007,08,15,12,11,24.90
2007,08,15,12,12,24.90
2007,08,15,12,13,25.00
2007,08,15,12,14,25.10
2007,08,15,12,15,25.10
2007,08,15,12,16,25.10
2007,08,15,12,17,25.20
2007,08,15,12,18,25.20
2007,08,15,12,19,25.20
2007,08,15,12,20,25.30
2007,08,15,12,21,25.40
2007,08,15,12,22,25.40
2007,08,15,12,23,25.50
2007,08,15,12,24,25.50
2007,08,15,12,25,25.50
2007,08,15,12,26,25.50
2007,08,15,12,27,25.50
2007,08,15,12,28,25.50
2007,08,15,12,29,25.50
2007,08,15,12,30,25.50
2007,08,15,12,31,25.50
2007,08,15,12,32,25.50
2007,08,15,12,33,25.60
2007,08,15,12,34,25.60
2007,08,15,12,35,25.60
2007,08,15,12,36,25.60
2007,08,15,12,37,25.60
2007,08,15,12,38,25.60
2007,08,15,12,39,25.50
2007,08,15,12,40,25.50
2007,08,15,12,41,25.40
2007,08,15,12,42,25.40
2007,08,15,12,43,25.40
2007,08,15,12,44,25.40
2007,08,15,12,45,25.40
2007,08,15,12,46,25.50
2007,08,15,12,47,25.50
2007,08,15,12,48,25.60
2007,08,15,12,49,25.60
2007,08,15,12,50,25.70
2007,08,15,12,51,25.80
2007,08,15,12,52,25.80
2007,08,15,12,53,25.90
2007,08,15,12,54,26.00
2007,08,15,12,55,26.00
2007,08,15,12,56,26.00
2007,08,15,12,57,26.00
2007,08,15,12,58,26.00
2007,08,15,12,59,26.10
2007,08,15,13,00,26.10
2007,08,15,13,01,26.20
2007,08,15,13,02,26.20
2007,08,15,13,03,26.30
2007,08,15,13,04,26.40
2007,08,15,13,05,26.60
2007,08,15,13,06,26.60
2007,08,15,13,07,26.70
2007,08,15,13,08,26.90
2007,08,15,13,09,27.00
2007,08,15,13,10,27.10
2007,08,15,13,11,27.10
2007,08,15,13,12,27.10
2007,08,15,13,13,27.40
2007,08,15,13,14,27.40
2007,08,15,13,15,27.40
2007,08,15,13,16,27.30
2007,08,15,13,17,27.30
2007,08,15,13,18,27.20
2007,08,15,13,19,27.20
2007,08,15,13,20,27.20
2007,08,15,13,21,27.20
2007,08,15,13,22,27.20
2007,08,15,13,23,27.30
2007,08,15,13,24,27.30
2007,08,15,13,25,27.30
2007,08,15,13,26,27.30
2007,08,15,13,27,27.30
2007,08,15,13,28,27.40
2007,08,15,13,29,27.40
2007,08,15,13,30,27.60
2007,08,15,13,31,27.60
2007,08,15,13,32,27.60
2007,08,15,13,33,27.60
2007,08,15,13,34,27.40
2007,08,15,13,35,27.40
2007,08,15,13,36,27.30
2007,08,15,13,37,27.30
2007,08,15,13,38,27.30
2007,08,15,13,39,27.30
2007,08,15,13,40,27.20
2007,08,15,13,41,27.20
2007,08,15,13,42,27.20
2007,08,15,13,43,27.30
2007,08,15,13,44,27.30
2007,08,15,13,45,27.40
2007,08,15,13,46,27.50
2007,08,15,13,47,27.60
2007,08,15,13,48,27.70
2007,08,15,13,49,27.80
2007,08,15,13,50,27.90
2007,08,15,13,51,27.90
2007,08,15,13,52,27.90
2007,08,15,13,53,27.80
2007,08,15,13,54,27.70
2007,08,15,13,55,27.50
2007,08,15,13,56,27.40
2007,08,15,13,57,27.30
2007,08,15,13,58,27.30
2007,08,15,13,59,27.30
2007,08,15,14,00,27.30
2007,08,15,14,01,27.30
2007,08,15,14,02,27.30
2007,08,15,14,03,27.50
2007,08,15,14,04,27.60
2007,08,15,14,05,27.70
2007,08,15,14,06,27.80
2007,08,15,14,07,27.90
2007,08,15,14,08,28.00
2007,08,15,14,09,28.10
2007,08,15,14,10,28.10
2007,08,15,14,11,28.10
2007,08,15,14,12,28.00
2007,08,15,14,13,27.90
2007,08,15,14,14,27.70
2007,08,15,14,15,27.60
2007,08,15,14,16,27.50
2007,08,15,14,17,27.40
2007,08,15,14,18,27.40
2007,08,15,14,19,27.40
2007,08,15,14,20,27.40
2007,08,15,14,21,27.40
2007,08,15,14,22,27.30
2007,08,15,14,23,27.30
2007,08,15,14,24,27.40
2007,08,15,14,25,27.30
2007,08,15,14,26,27.30
2007,08,15,14,27,27.30
2007,08,15,14,28,27.30
2007,08,15,14,29,27.30
2007,08,15,14,30,27.40
2007,08,15,14,31,27.50
2007,08,15,14,32,27.60
2007,08,15,14,33,27.70
2007,08,15,14,34,27.70
2007,08,15,14,35,27.80
2007,08,15,14,36,27.90
2007,08,15,14,37,27.90
2007,08,15,14,38,27.90
2007,08,15,14,39,27.90
2007,08,15,14,40,27.90
2007,08,15,14,41,27.90
2007,08,15,14,42,27.80
2007,08,15,14,43,27.80
2007,08,15,14,44,27.80
2007,08,15,14,45,27.80
2007,08,15,14,46,27.80
2007,08,15,14,47,27.80
2007,08,15,14,48,27.80
2007,08,15,14,49,27.80
2007,08,15,14,50,27.90
2007,08,15,14,51,28.00
2007,08,15,14,52,28.00
2007,08,15,14,53,28.10
2007,08,15,14,54,28.10
2007,08,15,14,55,28.10
2007,08,15,14,56,28.20
2007,08,15,14,57,28.20
2007,08,15,14,58,28.20
2007,08,15,14,59,28.30
2007,08,15,15,00,28.40
2007,08,15,15,01,28.40
2007,08,15,15,02,28.40
2007,08,15,15,03,28.40
2007,08,15,15,04,28.30
2007,08,15,15,05,28.30
2007,08,15,15,06,28.20
2007,08,15,15,07,28.20
2007,08,15,15,08,28.20
2007,08,15,15,09,28.20
2007,08,15,15,10,28.10
2007,08,15,15,11,28.10
2007,08,15,15,12,28.00
2007,08,15,15,13,27.90
2007,08,15,15,14,27.90
2007,08,15,15,15,27.80
2007,08,15,15,16,27.70
2007,08,15,15,17,27.70
2007,08,15,15,18,27.70
2007,08,15,15,19,27.70
2007,08,15,15,20,27.70
2007,08,15,15,21,27.70
2007,08,15,15,22,27.70
2007,08,15,15,23,27.80
2007,08,15,15,24,27.80
2007,08,15,15,25,27.80
2007,08,15,15,26,27.80
2007,08,15,15,27,27.80
2007,08,15,15,28,27.80
2007,08,15,15,29,27.70
2007,08,15,15,30,27.70
2007,08,15,15,31,27.70
2007,08,15,15,32,27.70
2007,08,15,15,33,27.70
2007,08,15,15,34,27.70
2007,08,15,15,35,27.70
2007,08,15,15,36,27.70
2007,08,15,15,37,27.70
2007,08,15,15,38,27.80
2007,08,15,15,39,27.80
2007,08,15,15,40,27.80
2007,08,15,15,41,27.90
2007,08,15,15,42,27.90
2007,08,15,15,43,28.00
2007,08,15,15,44,28.00
2007,08,15,15,45,28.00
2007,08,15,15,46,28.00
2007,08,15,15,47,28.00
2007,08,15,15,48,28.00
2007,08,15,15,49,28.00
2007,08,15,15,50,28.00
2007,08,15,15,51,28.00
2007,08,15,15,52,28.00
2007,08,15,15,53,27.90
2007,08,15,15,54,27.90
2007,08,15,15,55,27.90
2007,08,15,15,56,27.70
2007,08,15,15,57,27.60
2007,08,15,15,58,27.60
2007,08,15,15,59,27.60
2007,08,15,16,00,27.60
2007,08,15,16,01,27.50
2007,08,15,16,02,27.40
2007,08,15,16,03,27.40
2007,08,15,16,04,27.30
2007,08,15,16,05,27.30
2007,08,15,16,06,27.30
2007,08,15,16,07,27.30
2007,08,15,16,08,27.30
2007,08,15,16,09,27.30
2007,08,15,16,10,27.40
2007,08,15,16,11,27.40
2007,08,15,16,12,27.40
2007,08,15,16,13,27.40
2007,08,15,16,14,27.40
2007,08,15,16,15,27.40
2007,08,15,16,16,27.40
2007,08,15,16,17,27.50
2007,08,15,16,18,27.60
2007,08,15,16,19,27.60
2007,08,15,16,20,27.60
2007,08,15,16,21,27.70
2007,08,15,16,22,27.70
2007,08,15,16,23,27.70
2007,08,15,16,24,27.70
2007,08,15,16,25,27.70
2007,08,15,16,26,27.70
2007,08,15,16,27,27.70
2007,08,15,16,28,27.70
2007,08,15,16,29,27.70
2007,08,15,16,30,27.60
2007,08,15,16,31,27.60
2007,08,15,16,32,27.60
2007,08,15,16,33,27.60
2007,08,15,16,34,27.50
2007,08,15,16,35,27.40
2007,08,15,16,36,27.40
2007,08,15,16,37,27.40
2007,08,15,16,38,27.40
2007,08,15,16,39,27.30
2007,08,15,16,40,27.30
2007,08,15,16,41,27.30
2007,08,15,16,42,27.30
2007,08,15,16,43,27.30
2007,08,15,16,44,27.30
2007,08,15,16,45,27.40
2007,08,15,16,46,27.40
2007,08,15,16,47,27.40
2007,08,15,16,48,27.40
2007,08,15,16,49,27.40
2007,08,15,16,50,27.40
2007,08,15,16,51,27.40
2007,08,15,16,52,27.60
2007,08,15,16,53,27.60
2007,08,15,16,54,27.60
2007,08,15,16,55,27.60
2007,08,15,16,56,27.60
2007,08,15,16,57,27.60
2007,08,15,16,58,27.60
2007,08,15,16,59,27.60
2007,08,15,17,00,27.60
2007,08,15,17,01,27.50
2007,08,15,17,02,27.40
2007,08,15,17,03,27.40
2007,08,15,17,04,27.40
2007,08,15,17,05,27.40
2007,08,15,17,06,27.40
2007,08,15,17,07,27.40
2007,08,15,17,08,27.40
2007,08,15,17,09,27.30
2007,08,15,17,10,27.30
2007,08,15,17,11,27.30
2007,08,15,17,12,27.30
2007,08,15,17,13,27.30
2007,08,15,17,14,27.30
2007,08,15,17,15,27.30
2007,08,15,17,16,27.30
2007,08,15,17,17,27.30
2007,08,15,17,18,27.30
2007,08,15,17,19,27.30